CW2882 Weather Reports


Display with metric or nautical units.
time (UTC)temp
F
wind
direction
speed
MPH
gust
MPH
rain 1hr
in
rain 24hr
in
rain mn
in
humidity
%
barometer
mb
20260831041527 58 182 0.0 2.0 0.00 0.00 0.00 86 1018.8
20260831040035 58 148 0.0 2.0 0.00 0.00 0.00 85 1018.8
20260831034526 59 162 0.0 2.0 0.00 0.00 0.00 84 1018.8
20260831033026 60 214 0.0 2.0 0.00 0.00 0.00 83 1018.7
20260831031525 60 221 0.0 2.0 0.00 0.00 0.00 82 1018.7
20260831030024 60 212 0.0 2.0 0.00 0.00 0.00 82 1018.7
20260831024524 60 207 0.0 3.0 0.00 0.00 0.00 80 1018.7
20260831023023 61 121 0.0 3.0 0.00 0.00 0.00 78 1018.9
20260831021521 61 220 1.0 3.0 0.00 0.00 0.00 77 1018.9
20260831020020 62 145 0.0 2.0 0.00 0.00 0.00 74 1019.0
20260831014523 63 127 0.0 1.0 0.00 0.00 0.00 73 1019.0
20260831013019 63 240 0.0 2.0 0.00 0.00 0.00 73 1019.1
20260831011520 63 131 0.0 2.0 0.00 0.00 0.00 73 1019.2
20260831010016 63 269 0.0 3.0 0.00 0.00 0.00 72 1019.3
20260831004515 64 210 0.0 2.0 0.00 0.00 0.00 72 1019.3
20260831003014 63 153 0.0 3.0 0.00 0.00 0.00 72 1019.4
20260831001514 63 218 0.0 3.0 0.00 0.00 0.00 72 1019.6
20260831000013 63 240 0.0 4.0 0.00 0.00 0.00 73 1019.7
20260830234513 64 221 1.0 3.0 0.00 0.00 0.00 72 1019.7
20260830233011 64 231 2.0 4.0 0.00 0.00 0.00 71 1019.8
20260830231516 65 213 0.0 5.0 0.00 0.00 0.00 71 1019.9
20260830230009 65 189 1.0 4.0 0.00 0.00 0.00 70 1019.9
20260830224509 64 266 0.0 4.0 0.00 0.00 0.00 71 1019.9
20260830223008 64 220 2.0 5.0 0.00 0.00 0.00 71 1020.1
20260830221509 65 253 1.0 4.0 0.00 0.00 0.00 71 1020.1
20260830220008 65 148 1.0 6.0 0.00 0.00 0.00 70 1020.3
20260830214507 66 97 2.0 6.0 0.00 0.00 0.00 69 1020.5
20260830213007 65 220 2.0 8.0 0.00 0.00 0.00 71 1020.5
20260830211504 65 262 1.0 6.0 0.00 0.00 0.00 72 1020.5
20260830210004 65 281 2.0 5.0 0.00 0.00 0.00 71 1020.5
20260830204504 64 240 3.0 7.0 0.00 0.00 0.00 73 1020.5
20260830203003 65 241 1.0 8.0 0.00 0.00 0.00 74 1020.5
20260830201503 65 253 3.0 8.0 0.00 0.00 0.00 73 1020.5
20260830200059 65 251 2.0 7.0 0.00 0.00 0.00 75 1020.6
20260830194602 64 251 2.0 6.0 0.00 0.00 0.00 76 1020.5
20260830193057 64 208 2.0 6.0 0.00 0.00 0.00 76 1020.5
20260830191556 64 211 1.0 6.0 0.00 0.00 0.00 77 1020.6
20260830190050 62 174 0.0 2.0 0.00 0.00 0.00 82 1020.6
20260830184547 60 275 0.0 4.0 0.00 0.00 0.00 83 1020.9
20260830183051 60 229 1.0 4.0 0.00 0.00 0.00 83 1021.0
20260830181547 60 139 1.0 5.0 0.00 0.00 0.00 84 1021.0
20260830180044 60 222 2.0 7.0 0.00 0.00 0.00 84 1020.9
20260830174542 59 226 1.0 6.0 0.00 0.00 0.00 85 1020.9
20260830173041 59 176 4.0 7.0 0.00 0.00 0.00 84 1020.7
20260830171543 59 229 0.0 4.0 0.00 0.00 0.00 85 1020.6
20260830170038 59 203 1.0 6.0 0.00 0.00 0.00 86 1020.6
20260830164542 58 207 0.0 5.0 0.00 0.00 0.00 86 1020.7
20260830163047 58 359 2.0 6.0 0.00 0.00 0.00 86 1020.7
20260830161534 58 118 1.0 8.0 0.00 0.00 0.00 86 1020.6
20260830160052 58 245 1.0 9.0 0.00 0.00 0.00 87 1020.6
20260830154531 58 107 3.0 10.0 0.00 0.00 0.00 87 1020.5
20260830153028 57 143 2.0 7.0 0.00 0.00 0.00 88 1020.5
20260830151525 57 130 1.0 6.0 0.00 0.00 0.00 89 1020.5
20260830150023 56 147 1.0 7.0 0.00 0.00 0.00 91 1020.4
20260830144521 56 155 2.0 7.0 0.00 0.00 0.00 91 1020.3
20260830143019 55 229 0.0 3.0 0.00 0.00 0.00 93 1020.3
20260830141517 54 150 0.0 3.0 0.00 0.00 0.00 93 1020.2
20260830140017 54 119 0.0 3.0 0.00 0.00 0.00 94 1020.1
20260830134523 54 162 1.0 3.0 0.00 0.00 0.00 95 1020.1
20260830133021 54 191 1.0 5.0 0.00 0.00 0.00 96 1020.0
20260830131513 54 233 1.0 5.0 0.00 0.00 0.00 96 1020.0
20260830130013 53 183 1.0 5.0 0.00 0.01 0.00 96 1019.9
20260830124513 53 146 0.0 4.0 0.00 0.01 0.00 96 1019.9
20260830123012 53 201 1.0 4.0 0.00 0.01 0.00 96 1019.9
20260830121527 53 177 0.0 4.0 0.00 0.01 0.00 95 1019.8
20260830120008 53 176 2.0 5.0 0.00 0.05 0.00 95 1019.9
20260830114509 53 115 0.0 6.0 0.00 0.05 0.00 95 1019.8
20260830113008 54 225 1.0 4.0 0.00 0.05 0.00 95 1019.8
20260830111506 54 216 1.0 4.0 0.00 0.05 0.00 95 1019.8
20260830110005 54 265 2.0 6.0 0.00 0.08 0.00 95 1019.8
20260830104502 54 155 1.0 5.0 0.00 0.08 0.00 94 1019.7
20260830103001 54 252 0.0 4.0 0.00 0.08 0.00 93 1019.6
20260830101601 54 233 1.0 5.0 0.00 0.08 0.00 93 1019.5
20260830100059 54 193 0.0 4.0 0.00 0.08 0.00 92 1019.5
20260830094603 54 120 2.0 4.0 0.00 0.08 0.00 92 1019.4
20260830093058 54 221 2.0 6.0 0.00 0.08 0.00 91 1019.5
20260830091557 54 122 2.0 5.0 0.00 0.08 0.00 91 1019.5
20260830090105 54 217 1.0 6.0 0.00 0.08 0.00 93 1019.5
20260830084556 54 257 2.0 7.0 0.00 0.08 0.00 93 1019.6
20260830083055 54 113 1.0 6.0 0.00 0.08 0.00 93 1019.6
20260830081553 54 153 1.0 5.0 0.00 0.08 0.00 92 1019.4
20260830080053 54 131 1.0 5.0 0.00 0.09 0.00 92 1019.5
20260830074558 54 139 0.0 4.0 0.00 0.09 0.00 91 1019.4
20260830073051 55 107 0.0 4.0 0.00 0.09 0.00 89 1019.4
20260830071547 55 238 1.0 8.0 0.00 0.09 0.00 88 1019.3
20260830070046 55 236 2.0 6.0 0.00 0.21 0.09 88 1019.4
20260830064545 56 158 1.0 7.0 0.00 0.21 0.09 88 1019.3
20260830063053 55 245 2.0 5.0 0.00 0.21 0.09 87 1019.2
20260830061556 55 212 2.0 7.0 0.00 0.21 0.09 88 1019.3
20260830060043 56 212 3.0 7.0 0.00 0.28 0.09 87 1019.2
20260830054555 56 285 3.0 7.0 0.00 0.28 0.09 86 1019.3
20260830053042 56 217 1.0 10.0 0.00 0.28 0.09 85 1019.3
20260830051540 56 318 1.0 8.0 0.00 0.28 0.09 84 1019.3
20260830050039 56 278 2.0 7.0 0.00 0.28 0.09 83 1019.2
20260830044546 57 243 1.0 9.0 0.00 0.28 0.09 82 1019.1
20260830043043 57 246 2.0 7.0 0.00 0.28 0.09 82 1019.0